| time (UTC) | temp C | wind direction | speed KPH | gust KPH | rain 1hr cm | rain 24hr cm | rain mn cm | humidity % | barometer mb |
| 20260504050502 | 13 | 264 | 0.0 | 6.4 | 0.00 | 0.25 | 0.00 | 69 | 1005.3 |
| 20260504050001 | 13 | 270 | 0.0 | 9.7 | 0.00 | 0.25 | 0.25 | 68 | 1005.4 |
| 20260504045602 | 14 | 229 | 0.0 | 9.7 | 0.00 | 0.25 | 0.25 | 68 | 1005.4 |
| 20260504045100 | 14 | 263 | 0.0 | 9.7 | 0.00 | 0.25 | 0.25 | 67 | 1005.4 |
| 20260504044600 | 14 | 267 | 1.6 | 12.9 | 0.00 | 0.25 | 0.25 | 66 | 1005.4 |
| 20260504044059 | 14 | 251 | 4.8 | 12.9 | 0.00 | 0.25 | 0.25 | 66 | 1005.4 |
| 20260504043600 | 14 | 305 | 3.2 | 11.3 | 0.00 | 0.25 | 0.25 | 66 | 1005.3 |
| 20260504043115 | 14 | 249 | 1.6 | 8.0 | 0.00 | 0.25 | 0.25 | 65 | 1005.3 |
| 20260504042600 | 14 | 265 | 1.6 | 8.0 | 0.00 | 0.25 | 0.25 | 65 | 1005.4 |
| 20260504042059 | 14 | 185 | 1.6 | 8.0 | 0.00 | 0.25 | 0.25 | 64 | 1005.2 |
| 20260504041559 | 14 | 229 | 1.6 | 6.4 | 0.00 | 0.25 | 0.25 | 64 | 1005.2 |
| 20260504041059 | 15 | 269 | 1.6 | 11.3 | 0.00 | 0.25 | 0.25 | 63 | 1005.2 |
| 20260504040559 | 15 | 264 | 1.6 | 11.3 | 0.00 | 0.25 | 0.25 | 63 | 1005.2 |
| 20260504035601 | 15 | 217 | 4.8 | 12.9 | 0.00 | 0.25 | 0.25 | 62 | 1005.2 |
| 20260504035057 | 15 | 214 | 3.2 | 9.7 | 0.00 | 0.25 | 0.25 | 62 | 1005.2 |
| 20260504034557 | 15 | 201 | 4.8 | 11.3 | 0.00 | 0.25 | 0.25 | 61 | 1005.2 |
| 20260504034057 | 15 | 207 | 4.8 | 11.3 | 0.00 | 0.25 | 0.25 | 61 | 1005.2 |
| 20260504033557 | 15 | 208 | 3.2 | 12.9 | 0.00 | 0.25 | 0.25 | 60 | 1005.4 |
| 20260504033115 | 15 | 166 | 4.8 | 12.9 | 0.00 | 0.25 | 0.25 | 60 | 1005.5 |
| 20260504032556 | 15 | 183 | 3.2 | 11.3 | 0.00 | 0.25 | 0.25 | 60 | 1005.5 |
| 20260504032057 | 15 | 236 | 4.8 | 12.9 | 0.00 | 0.25 | 0.25 | 59 | 1005.5 |
| 20260504031603 | 15 | 201 | 4.8 | 12.9 | 0.00 | 0.25 | 0.25 | 59 | 1005.6 |
| 20260504031058 | 15 | 258 | 3.2 | 12.9 | 0.00 | 0.25 | 0.25 | 60 | 1005.7 |
| 20260504030556 | 15 | 235 | 1.6 | 11.3 | 0.00 | 0.25 | 0.25 | 60 | 1005.6 |
| 20260504030055 | 15 | 269 | 3.2 | 11.3 | 0.00 | 0.25 | 0.25 | 60 | 1005.7 |
| 20260504025555 | 15 | 195 | 3.2 | 9.7 | 0.00 | 0.25 | 0.25 | 60 | 1005.7 |
| 20260504025055 | 15 | 194 | 3.2 | 8.0 | 0.00 | 0.25 | 0.25 | 60 | 1005.7 |
| 20260504024601 | 15 | 196 | 3.2 | 6.4 | 0.00 | 0.25 | 0.25 | 60 | 1005.7 |
| 20260504024054 | 15 | 261 | 1.6 | 8.0 | 0.00 | 0.25 | 0.25 | 60 | 1005.7 |
| 20260504023556 | 15 | 215 | 1.6 | 8.0 | 0.00 | 0.25 | 0.25 | 60 | 1005.6 |
| 20260504023056 | 15 | 194 | 1.6 | 6.4 | 0.00 | 0.25 | 0.25 | 60 | 1005.7 |
| 20260504022554 | 15 | 221 | 0.0 | 4.8 | 0.00 | 0.25 | 0.25 | 60 | 1005.7 |
| 20260504022053 | 16 | 286 | 0.0 | 8.0 | 0.00 | 0.25 | 0.25 | 60 | 1005.6 |
| 20260504021555 | 16 | 267 | 1.6 | 9.7 | 0.00 | 0.25 | 0.25 | 60 | 1005.6 |
| 20260504021053 | 16 | 193 | 0.0 | 9.7 | 0.00 | 0.25 | 0.25 | 60 | 1005.6 |
| 20260504020554 | 16 | 241 | 1.6 | 9.7 | 0.00 | 0.25 | 0.25 | 59 | 1005.5 |
| 20260504020053 | 16 | 236 | 1.6 | 9.7 | 0.00 | 0.25 | 0.25 | 59 | 1005.4 |
| 20260504015553 | 16 | 227 | 1.6 | 6.4 | 0.00 | 0.25 | 0.25 | 59 | 1005.4 |
| 20260504015052 | 16 | 266 | 3.2 | 8.0 | 0.00 | 0.25 | 0.25 | 58 | 1005.3 |
| 20260504014552 | 16 | 246 | 3.2 | 12.9 | 0.00 | 0.25 | 0.25 | 58 | 1005.2 |
| 20260504014051 | 16 | 235 | 3.2 | 12.9 | 0.00 | 0.25 | 0.25 | 58 | 1005.3 |
| 20260504013551 | 16 | 206 | 1.6 | 8.0 | 0.00 | 0.25 | 0.25 | 57 | 1005.2 |
| 20260504013104 | 16 | 184 | 1.6 | 12.9 | 0.00 | 0.25 | 0.25 | 57 | 1005.2 |
| 20260504012554 | 17 | 204 | 3.2 | 12.9 | 0.00 | 0.25 | 0.25 | 57 | 1005.2 |
| 20260504012055 | 17 | 233 | 3.2 | 8.0 | 0.00 | 0.25 | 0.25 | 56 | 1005.1 |
| 20260504011551 | 17 | 208 | 1.6 | 8.0 | 0.00 | 0.25 | 0.25 | 56 | 1005.1 |
| 20260504011052 | 17 | 290 | 1.6 | 9.7 | 0.00 | 0.25 | 0.25 | 56 | 1005.1 |
| 20260504010550 | 17 | 229 | 0.0 | 11.3 | 0.00 | 0.25 | 0.25 | 55 | 1005.0 |
| 20260504010055 | 17 | 159 | 1.6 | 11.3 | 0.00 | 0.25 | 0.25 | 54 | 1005.0 |
| 20260504005550 | 17 | 198 | 3.2 | 17.7 | 0.00 | 0.25 | 0.25 | 53 | 1005.0 |
| 20260504005051 | 18 | 248 | 1.6 | 17.7 | 0.00 | 0.25 | 0.25 | 53 | 1005.1 |
| 20260504004601 | 18 | 259 | 1.6 | 14.5 | 0.00 | 0.25 | 0.25 | 52 | 1005.0 |
| 20260504004050 | 18 | 191 | 1.6 | 8.0 | 0.00 | 0.25 | 0.25 | 51 | 1005.0 |
| 20260504003552 | 18 | 211 | 1.6 | 12.9 | 0.00 | 0.25 | 0.25 | 50 | 1005.0 |
| 20260504003049 | 18 | 215 | 1.6 | 11.3 | 0.00 | 0.25 | 0.25 | 49 | 1005.0 |
| 20260504002549 | 18 | 265 | 1.6 | 11.3 | 0.00 | 0.25 | 0.25 | 49 | 1005.0 |
| 20260504002052 | 19 | 218 | 1.6 | 9.7 | 0.00 | 0.25 | 0.25 | 49 | 1005.1 |
| 20260504001548 | 19 | 217 | 3.2 | 11.3 | 0.00 | 0.25 | 0.25 | 48 | 1005.1 |
| 20260504001050 | 19 | 257 | 1.6 | 14.5 | 0.00 | 0.25 | 0.25 | 48 | 1005.1 |
| 20260504000546 | 20 | 269 | 3.2 | 14.5 | 0.00 | 0.25 | 0.25 | 47 | 1005.2 |
| 20260504000053 | 20 | 288 | 3.2 | 12.9 | 0.00 | 0.25 | 0.25 | 46 | 1005.1 |
| 20260503235545 | 20 | 266 | 4.8 | 14.5 | 0.00 | 0.25 | 0.25 | 46 | 1005.1 |
| 20260503235048 | 20 | 267 | 3.2 | 12.9 | 0.00 | 0.25 | 0.25 | 45 | 1005.1 |
| 20260503234546 | 20 | 253 | 4.8 | 12.9 | 0.00 | 0.25 | 0.25 | 45 | 1005.1 |
| 20260503234046 | 20 | 266 | 3.2 | 14.5 | 0.00 | 0.25 | 0.25 | 45 | 1005.1 |
| 20260503233546 | 20 | 279 | 4.8 | 14.5 | 0.00 | 0.25 | 0.25 | 44 | 1005.1 |
| 20260503233045 | 20 | 288 | 1.6 | 12.9 | 0.00 | 0.25 | 0.25 | 45 | 1005.2 |
| 20260503232545 | 21 | 246 | 3.2 | 14.5 | 0.00 | 0.25 | 0.25 | 45 | 1005.2 |
| 20260503232045 | 20 | 267 | 3.2 | 14.5 | 0.00 | 0.25 | 0.25 | 44 | 1005.1 |
| 20260503231552 | 20 | 205 | 4.8 | 12.9 | 0.00 | 0.25 | 0.25 | 44 | 1005.2 |
| 20260503231045 | 21 | 271 | 4.8 | 14.5 | 0.00 | 0.25 | 0.25 | 43 | 1005.2 |
| 20260503230545 | 21 | 262 | 4.8 | 14.5 | 0.00 | 0.25 | 0.25 | 44 | 1005.1 |
| 20260503230051 | 21 | 312 | 3.2 | 12.9 | 0.00 | 0.25 | 0.25 | 43 | 1005.3 |
| 20260503225543 | 21 | 286 | 3.2 | 20.9 | 0.00 | 0.25 | 0.25 | 43 | 1005.4 |
| 20260503225044 | 21 | 281 | 4.8 | 20.9 | 0.00 | 0.25 | 0.25 | 44 | 1005.4 |
| 20260503224543 | 20 | 279 | 3.2 | 19.3 | 0.00 | 0.25 | 0.25 | 44 | 1005.5 |
| 20260503224042 | 20 | 258 | 8.0 | 19.3 | 0.00 | 0.25 | 0.25 | 43 | 1005.5 |
| 20260503223542 | 20 | 278 | 4.8 | 20.9 | 0.00 | 0.25 | 0.25 | 44 | 1005.4 |
| 20260503223041 | 20 | 281 | 6.4 | 27.4 | 0.00 | 0.25 | 0.25 | 44 | 1005.5 |
| 20260503222541 | 20 | 231 | 6.4 | 16.1 | 0.00 | 0.25 | 0.25 | 44 | 1005.6 |
| 20260503222042 | 20 | 249 | 8.0 | 19.3 | 0.00 | 0.25 | 0.25 | 44 | 1005.5 |
| 20260503221540 | 20 | 279 | 9.7 | 25.7 | 0.00 | 0.25 | 0.25 | 43 | 1005.6 |
| 20260503221041 | 20 | 250 | 9.7 | 25.7 | 0.00 | 0.25 | 0.25 | 43 | 1005.7 |
| 20260503220539 | 21 | 278 | 8.0 | 16.1 | 0.00 | 0.25 | 0.25 | 42 | 1005.7 |
| 20260503220041 | 21 | 284 | 4.8 | 20.9 | 0.00 | 0.25 | 0.25 | 43 | 1005.8 |
| 20260503215537 | 21 | 246 | 8.0 | 20.9 | 0.00 | 0.25 | 0.25 | 42 | 1005.8 |
| 20260503215036 | 21 | 160 | 4.8 | 27.4 | 0.00 | 0.25 | 0.25 | 43 | 1005.7 |
| 20260503214535 | 20 | 281 | 4.8 | 27.4 | 0.00 | 0.25 | 0.25 | 43 | 1005.8 |
| 20260503214034 | 20 | 188 | 8.0 | 20.9 | 0.00 | 0.25 | 0.25 | 42 | 1005.8 |
| 20260503213534 | 20 | 236 | 8.0 | 27.4 | 0.00 | 0.25 | 0.25 | 42 | 1005.9 |
| 20260503213035 | 20 | 191 | 12.9 | 25.7 | 0.00 | 0.25 | 0.25 | 42 | 1005.9 |
| 20260503212535 | 20 | 271 | 9.7 | 19.3 | 0.00 | 0.25 | 0.25 | 42 | 1006.1 |
| 20260503212031 | 20 | 269 | 8.0 | 19.3 | 0.00 | 0.25 | 0.25 | 42 | 1006.2 |
| 20260503211537 | 20 | 283 | 6.4 | 24.1 | 0.00 | 0.25 | 0.25 | 43 | 1006.4 |
| 20260503211029 | 19 | 205 | 8.0 | 24.1 | 0.00 | 0.25 | 0.25 | 44 | 1006.5 |
| 20260503210528 | 19 | 222 | 12.9 | 24.1 | 0.00 | 0.25 | 0.25 | 44 | 1006.5 |
| 20260503210031 | 19 | 215 | 11.3 | 22.5 | 0.00 | 0.25 | 0.25 | 43 | 1006.6 |
| 20260503205533 | 19 | 240 | 8.0 | 22.5 | 0.00 | 0.25 | 0.25 | 44 | 1006.7 |
| 20260503205025 | 18 | 255 | 8.0 | 24.1 | 0.00 | 0.25 | 0.25 | 45 | 1006.9 |
| 20260503204524 | 18 | 257 | 8.0 | 24.1 | 0.00 | 0.25 | 0.25 | 44 | 1007.0 |
| 20260503204022 | 18 | 283 | 8.0 | 27.4 | 0.00 | 0.25 | 0.25 | 45 | 1007.0 |
| 20260503203522 | 18 | 253 | 14.5 | 27.4 | 0.00 | 0.25 | 0.25 | 44 | 1007.2 |
| 20260503203023 | 18 | 276 | 12.9 | 33.8 | 0.00 | 0.25 | 0.25 | 44 | 1007.2 |
| 20260503202521 | 18 | 265 | 14.5 | 38.6 | 0.00 | 0.25 | 0.25 | 43 | 1007.4 |
| 20260503202021 | 18 | 184 | 11.3 | 22.5 | 0.00 | 0.25 | 0.25 | 43 | 1007.6 |
| 20260503201519 | 18 | 212 | 9.7 | 24.1 | 0.00 | 0.25 | 0.25 | 43 | 1007.6 |
| 20260503201019 | 18 | 288 | 9.7 | 27.4 | 0.00 | 0.25 | 0.25 | 43 | 1007.7 |
| 20260503200519 | 18 | 262 | 16.1 | 27.4 | 0.00 | 0.25 | 0.25 | 43 | 1007.7 |
| 20260503200019 | 18 | 288 | 6.4 | 27.4 | 0.00 | 0.25 | 0.25 | 45 | 1007.7 |
| 20260503195519 | 18 | 279 | 11.3 | 29.0 | 0.00 | 0.25 | 0.25 | 44 | 1007.7 |
| 20260503195017 | 18 | 222 | 12.9 | 29.0 | 0.00 | 0.25 | 0.25 | 44 | 1007.9 |
| 20260503194516 | 18 | 221 | 9.7 | 27.4 | 0.00 | 0.25 | 0.25 | 44 | 1007.9 |
| 20260503194018 | 18 | 194 | 9.7 | 30.6 | 0.00 | 0.25 | 0.25 | 44 | 1008.1 |
| 20260503193516 | 18 | 234 | 12.9 | 30.6 | 0.00 | 0.25 | 0.25 | 45 | 1008.0 |
| 20260503193030 | 18 | 231 | 9.7 | 24.1 | 0.00 | 0.25 | 0.25 | 48 | 1008.1 |
| 20260503192512 | 17 | 218 | 12.9 | 24.1 | 0.00 | 0.25 | 0.25 | 48 | 1008.2 |
| 20260503192012 | 17 | 236 | 11.3 | 27.4 | 0.00 | 0.25 | 0.25 | 51 | 1008.3 |
| 20260503191512 | 17 | 258 | 12.9 | 29.0 | 0.00 | 0.25 | 0.25 | 51 | 1008.4 |
| 20260503191010 | 17 | 269 | 14.5 | 29.0 | 0.00 | 0.25 | 0.25 | 53 | 1008.3 |
| 20260503190508 | 17 | 238 | 9.7 | 29.0 | 0.00 | 0.25 | 0.25 | 55 | 1008.5 |
| 20260503190015 | 16 | 269 | 8.0 | 22.5 | 0.00 | 0.25 | 0.25 | 56 | 1008.5 |
| 20260503185505 | 16 | 233 | 8.0 | 25.7 | 0.00 | 0.25 | 0.25 | 56 | 1008.6 |
| 20260503185004 | 16 | 160 | 9.7 | 25.7 | 0.00 | 0.25 | 0.25 | 60 | 1008.7 |
| 20260503184503 | 15 | 233 | 9.7 | 24.1 | 0.00 | 0.25 | 0.25 | 61 | 1008.9 |
| 20260503184003 | 15 | 151 | 8.0 | 30.6 | 0.00 | 0.25 | 0.25 | 62 | 1009.0 |
| 20260503183501 | 15 | 134 | 12.9 | 29.0 | 0.00 | 0.25 | 0.25 | 63 | 1009.1 |
| 20260503183103 | 15 | 322 | 11.3 | 25.7 | 0.00 | 0.25 | 0.25 | 63 | 1009.1 |
| 20260503183001 | 15 | 187 | 9.7 | 25.7 | 0.00 | 0.25 | 0.25 | 63 | 1009.1 |
| 20260503182601 | 15 | 165 | 6.4 | 19.3 | 0.00 | 0.25 | 0.25 | 66 | 1009.2 |
| 20260503182056 | 14 | 153 | 8.0 | 20.9 | 0.00 | 0.25 | 0.25 | 66 | 1009.4 |
| 20260503181601 | 13 | 229 | 8.0 | 24.1 | 0.00 | 0.25 | 0.25 | 66 | 1009.5 |
| 20260503181055 | 13 | 95 | 6.4 | 25.7 | 0.00 | 0.25 | 0.25 | 68 | 1009.7 |
| 20260503180552 | 13 | 236 | 8.0 | 25.7 | 0.00 | 0.25 | 0.25 | 71 | 1009.8 |
| 20260503180051 | 12 | 142 | 9.7 | 22.5 | 0.03 | 0.25 | 0.25 | 72 | 1010.0 |
| 20260503175548 | 12 | 159 | 6.4 | 17.7 | 0.03 | 0.25 | 0.25 | 74 | 1010.1 |
| 20260503175047 | 12 | 167 | 4.8 | 22.5 | 0.05 | 0.25 | 0.25 | 79 | 1010.3 |
| 20260503174602 | 11 | 146 | 8.0 | 22.5 | 0.05 | 0.25 | 0.25 | 77 | 1010.4 |
| 20260503174046 | 11 | 181 | 4.8 | 20.9 | 0.05 | 0.25 | 0.25 | 79 | 1010.4 |
| 20260503173546 | 10 | 279 | 8.0 | 24.1 | 0.08 | 0.25 | 0.25 | 78 | 1010.4 |
| 20260503173048 | 10 | 163 | 6.4 | 17.7 | 0.08 | 0.25 | 0.25 | 80 | 1010.6 |
| 20260503172543 | 10 | 175 | 4.8 | 17.7 | 0.10 | 0.25 | 0.25 | 84 | 1010.9 |
| 20260503172042 | 9 | 239 | 6.4 | 20.9 | 0.13 | 0.25 | 0.25 | 83 | 1011.2 |
| 20260503171540 | 9 | 181 | 6.4 | 20.9 | 0.13 | 0.25 | 0.25 | 84 | 1011.5 |
| 20260503171040 | 8 | 217 | 4.8 | 12.9 | 0.13 | 0.25 | 0.25 | 85 | 1011.5 |
| 20260503170540 | 8 | 156 | 6.4 | 16.1 | 0.13 | 0.23 | 0.23 | 85 | 1011.7 |
| 20260503150524 | 10 | 274 | 6.4 | 17.7 | 0.03 | 0.03 | 0.03 | 71 | 1014.1 |
| 20260503131004 | 9 | 208 | 4.8 | 12.9 | 0.00 | 0.00 | 0.00 | 64 | 1014.2 |
| 20260503130503 | 9 | 209 | 3.2 | 12.9 | 0.00 | 0.00 | 0.00 | 64 | 1014.1 |
| 20260503110550 | 8 | 289 | 4.8 | 14.5 | 0.00 | 0.00 | 0.00 | 63 | 1013.9 |
| 20260503081543 | 7 | 218 | 1.6 | 12.9 | 0.00 | 0.00 | 0.00 | 62 | 1014.8 |
| 20260503081030 | 7 | 185 | 1.6 | 9.7 | 0.00 | 0.00 | 0.00 | 61 | 1014.8 |
| 20260503080529 | 7 | 272 | 3.2 | 12.9 | 0.00 | 0.00 | 0.00 | 61 | 1014.8 |
| 20260503072526 | 7 | 224 | 0.0 | 8.0 | 0.00 | 0.00 | 0.00 | 60 | 1014.9 |
| 20260503072028 | 7 | 222 | 3.2 | 9.7 | 0.00 | 0.00 | 0.00 | 60 | 1014.9 |
| 20260503071532 | 7 | 213 | 3.2 | 9.7 | 0.00 | 0.00 | 0.00 | 60 | 1015.0 |
| 20260503071021 | 7 | 193 | 1.6 | 8.0 | 0.00 | 0.00 | 0.00 | 59 | 1015.0 |